Location: Schommer Observatory
(40.5200°N, 74.4500°W)
Time: 05:16:58
(UTC-05:00)

X-37B - Pass Details

Date: 16 October 2017
Orbit: 259 x 286 km, 43.2° (Epoch: 06 October)

Event Time Altitude Azimuth Distance (km) Brightness Sun altitude
Exits shadow 06:15:08 21° 304° (NW) 648 2.7 -11.2°
Maximum altitude 06:16:17 37° 2° (N) 412 2.2 -11.0°
Drops below altitude 10° 06:18:28 10° 73° (ENE) 1,032 5.5 -10.6°
Sets 06:20:26 0° 82° (E) 1,839 7.5 -10.2°
